This demonstration page uses our WeatherBlox Daily Observations layout. Learn more.

Left ArrowRight Arrow

41.86663, -103.66717

Hourly Observations for March 26, 2020

Temp ( °F °C ) Dew Point ( °F °C ) Humidity (%) Winds ( mph kmh ) Pressure ( in mb ) Visibility ( mi km ) Precip ( " mm )
12:53 am 00:53 Clear 35 1.7 30 -1.1 82 82 E 9 15 29.73 1007 10 16 N/A
1:53 am 01:53 Clear 37 2.8 32 undefined 82 82 E 8 13 29.72 1007 10 16 N/A
2:53 am 02:53 Clear 36 2.2 33 0.6 89 89 E 14 22 29.72 1007 10 16 N/A
3:53 am 03:53 Clear 33 0.6 32 undefined 96 96 E 8 13 29.72 1006 10 16 N/A
4:33 am 04:33 Mostly Cloudy 35 1.7 33 0.6 93 93 ESE 8 13 29.83 1010 10 16 N/A
4:53 am 04:53 Cloudy 36 2.2 34 1.1 93 93 SE 8 13 29.72 1007 10 16 N/A
5:53 am 05:53 Cloudy 36 2.2 34 1.1 93 93 ESE 13 20 29.75 1007 10 16 N/A
6:41 am 06:41 Cloudy 36 2.2 34 1.1 93 93 ESE 10 17 29.85 1011 9 14 N/A
6:53 am 06:53 Cloudy 36 2.2 34 1.1 93 93 SE 10 17 29.76 1008 10 16 N/A
7:10 am 07:10 Cloudy 36 2 34 1 93 93 ESE 12 19 29.86 1011 9 14 N/A
7:53 am 07:53 Cloudy 36 2.2 34 1.1 93 93 ESE 9 15 29.78 1009 9 14 N/A
8:53 am 08:53 Cloudy 37 2.8 35 1.7 93 93 SSE 7 11 29.80 1009 9 14 N/A
9:45 am 09:45 Cloudy 38 3.3 34 1.1 86 86 SSE 7 11 29.85 1011 10 16 N/A
9:53 am 09:53 Cloudy 38 3.3 34 1.1 86 86 SSE 7 11 29.78 1008 10 16 N/A
10:35 am 10:35 Cloudy 39 3.9 33 0.6 79 79 SSE 7 11 29.83 1010 10 16 N/A
10:53 am 10:53 Cloudy 40 4.4 32 undefined 73 73 SSE 7 11 29.78 1008 10 16 N/A
11:53 am 11:53 Cloudy 42 5.6 33 0.6 71 71 S 6 9 29.76 1008 10 16 N/A
12:53 pm 12:53 Mostly Cloudy 45 7.2 33 0.6 63 63 N N/A 29.75 1007 10 16 N/A
1:14 pm 13:14 Partly Cloudy 46 7.8 33 0.6 61 61 SE 7 11 29.71 1006 10 16 N/A
1:53 pm 13:53 Sunny 48 8.9 34 1.1 58 58 SSE 6 9 29.70 1006 10 16 N/A
2:53 pm 14:53 Sunny 51 10.6 33 0.6 50 50 undefined N/A 29.67 1005 10 16 N/A
3:53 pm 15:53 Sunny 53 11.7 33 0.6 47 47 E 7 11 29.65 1004 10 16 N/A
4:53 pm 16:53 Sunny 54 12.2 32 undefined 43 43 SE 5 7 29.63 1003 10 16 N/A
5:53 pm 17:53 Sunny 54 12.2 32 undefined 43 43 SE 5 7 29.63 1003 10 16 N/A
6:53 pm 18:53 Sunny 51 10.6 32 undefined 48 48 SE 6 9 29.66 1004 10 16 N/A
7:53 pm 19:53 Clear 42 5.6 31 -0.6 65 65 ESE 6 9 29.71 1006 10 16 N/A
8:53 pm 20:53 Clear 40 4.4 32 undefined 73 73 ESE 9 15 29.74 1007 10 16 N/A
9:53 pm 21:53 Clear 38 3.3 33 0.6 83 83 ESE 10 17 29.76 1008 10 16 N/A
10:53 pm 22:53 Cloudy 39 3.9 34 1.1 82 82 ESE 8 13 29.76 1008 10 16 N/A
11:53 pm 23:53 Cloudy 39 3.9 35 1.7 86 86 E 9 15 29.76 1008 10 16 N/A

Powered by AerisWeather